Regional Weather Roundup
Issued by NWS

Home | Current Version | Previous Version | Graphics & Text | Print | Product List | Glossary On
Versions: 1 2 3 4 5 6 7 8 9 10 11 12 13 14 15 16 17 18 19 20 21 22 23 24 25 26 27 28 29 30 31 32 33 34 35 36 37 38 39 40 41 42 43 44 45 46 47 48 49 50
000
ASUS45 KTFX 010819
RWRMT
MONTANA HOURLY WEATHER ROUNDUP
NATIONAL WEATHER SERVICE GREAT FALLS MT
219 AM MDT WED APR 1 2015

NOTE: "FAIR" INDICATES FEW OR NO CLOUDS BELOW 12000 FEET WITH NO
SIGNIFICANT WEATHER AND/OR OBSTRUCTIONS TO VISIBILITY.

* THESE STATIONS ARE NOT UNDER NWS QUALITY CONTROL. THEY DO NOT
   REPORT WEATHER SUCH AS PRECIPITATION OR FOG.

MTZ001>007-043-010900-
WEST OF THE DIVIDE
CITY           SKY/WX    TMP DP  RH WIND       PRES   REMARKS
KALISPELL      CLOUDY    36  30  79 W6        29.86R WCI  31
MISSOULA       MOCLDY    34  28  79 CALM      29.94S
BUTTE          CLOUDY    34  16  48 N17       29.89R WCI  23
MULLAN PASS    PTCLDY    23  18  81 VRB7      29.89R WCI  15
* ESSEX        N/A       34  32  92 SW1        N/A
* EUREKA APT   PTCLDY    37  30  76 S6        29.85S WCI  32
* HAMILTON APT CLOUDY    34  30  85 SE6       29.97S WCI  29
* LIBBY APT    PTCLDY    39  19  45 S5        29.89R WCI  35
* LINCOLN      N/A       33  23  67 SW4G15     N/A
* LOOKOUT PASS N/A       30  21  69 SE2        N/A
* POLSON       N/A       31  23  72 SE1        N/A
* RONAN APT    PTCLDY    41  25  53 N/A        N/A
* SEELEY LAKE  N/A       29  25  85 NE1        N/A
* THOMP F APT  PTCLDY    32  24  72 NW11G27    N/A   WCI  23
$$

MTZ008-052>055-010900-
SOUTHWEST MONTANA
CITY           SKY/WX    TMP DP  RH WIND       PRES   REMARKS
BOZEMAN        CLOUDY    34  30  85 E3        29.90R
DILLON         CLOUDY    34  30  85 SE8       29.89R WCI  27
* W YELLOWSTON MOCLDY    39  27  62 SW3G11     N/A
* THREE FORKS  CLOUDY    37  34  89 SW8        N/A   WCI  31
* TWIN BRIDGES CLOUDY    37  23  57 N/A        N/A
* BOULDER HILL N/A       33  15  47 NE1G17     N/A
* HOMESTAKE PS N/A       29  14  53 NW9G18     N/A   WCI  21
* MONIDA PASS  N/A       27  24  88 NW14G19    N/A   WCI  16
* RAYNOLDS PAS N/A       32  31  96 N14G21     N/A   WCI  22
* WHITEHALL    N/A       40  16  38 W10G18     N/A   WCI  34
* WISE RIVER   N/A       31  15  51 W12G22     N/A   WCI  22
$$

MTZ009>010-012-014-046-048-049-054-010900-
EAST SLOPES AND CENTRAL MONTANA
CITY           SKY/WX    TMP DP  RH WIND       PRES   REMARKS
CUT BANK       MOCLDY    34  25  70 W26G31    29.72F WCI  21
GREAT FALLS    CLOUDY    39  19  45 SW21      29.76S WCI  29
HELENA         CLOUDY    39  21  48 W8        29.87R WCI  33
MALMSTROM AFB  CLOUDY    43  21  42 SW20G32   29.76R
* CONRAD       MOCLDY    41  21  45 SW8        N/A
* DEARBORN     N/A       43  20  40 S14G20     N/A
* EAST GLACIER N/A       33  22  64 NW14G20    N/A   WCI  23
* MONARCH      N/A       35  16  46 W12G21     N/A   WCI  27
* PENDROY      N/A       34  14  44 W10        N/A   WCI  26
* ROGERS PASS  N/A       31  18  59 SE10G17    N/A   WCI  22
* SAINT MARY   N/A       31  29  92 S5G14      N/A   WCI  26
* SWEET GRASS  N/A       38  25  60 W27G35     N/A   WCI  26
* WHITE SULPH  N/A       35  16  46 SW4G18     N/A
$$

MTZ011-013-016-021-035-040-045-047-050-051-010900-
NORTH CENTRAL MONTANA
CITY           SKY/WX    TMP DP  RH WIND       PRES   REMARKS
HAVRE          MOCLDY    46  23  40 W28G36    29.66S
LEWISTOWN      CLOUDY    45  32  60 NW13      29.72S
* N BAR RANCH  MOCLDY    39  34  82 NW16      29.68F WCI  30
* CHINOOK      CLOUDY    46  25  44 SW17G25   29.67R
* FORT BENTON  CLOUDY    41  27  58 SW10      29.75R
* MALTA APT    CLOUDY    52  37  57 N/A        N/A
* CHESTER      N/A       43  20  40 W21G31     N/A
* DENTON       N/A       44  31  60 W12        N/A
* GEYSER       N/A       38  28  67 W12        N/A   WCI  30
* JUDITH GAP   N/A       39  37  93 NW10G15    N/A   WCI  32
* LOMA         N/A       44  23  43 W12        N/A
$$

MTZ017>020-022>027-061-062-010900-
NORTHEAST MONTANA
CITY           SKY/WX    TMP DP  RH WIND       PRES   REMARKS
GLASGOW        CLOUDY    54  37  53 W18       29.57R
GLENDIVE       PTCLDY    57  36  46 W28G37    29.49R
JORDAN         PTCLDY    52  37  57 NW21      29.62R
SIDNEY         MOCLDY    57  34  42 W10G16    29.41R
WOLF POINT     PTCLDY    57  39  51 NW25G33   29.49R
* BEAVER HILL  N/A       59  27  29 S14G19     N/A
* CIRCLE       N/A       54  41  62 W9G25      N/A
* LINDSAY DVD  N/A       54  36  51 W22G31     N/A
* NAVAJO       N/A       52  38  59 NW20G31    N/A
* PLENTYWOOD A MOCLDY    52  37  57 NW12      29.43R
* POPLAR APT   PTCLDY    55  39  55 W8G20     29.47R
* SACO         N/A       49  42  77 W8G16      N/A
$$

MTZ028>042-056>058-010900-
SOUTHCENTRAL AND SOUTHEAST MONTANA
CITY           SKY/WX    TMP DP  RH WIND       PRES   REMARKS
BAKER          CLOUDY    57  27  32 W9        29.46F
BILLINGS       MOCLDY    46  36  68 NE6       29.71R
LIVINGSTON     CLOUDY    36  28  73 NW22G31   29.82R WCI  25
MILES CITY     MOCLDY    55  34  45 NW28G38   29.55R
* BIG TIMBER A MOCLDY    41  21  45 SW32G41   29.71S
* FORSYTH APT  PTCLDY    54  36  51 NW8G16    29.63R
* LAUREL APT   PTCLDY    46  30  54 W11G16     N/A
* ROUNDUP APT  PTCLDY    46  30  54 NW11G23    N/A
* ALZADA       N/A       62  23  22 W7         N/A
* HYSHAM       N/A       50  31  48 NW11G17    N/A
* LAME DEER    N/A       53  33  47 NW22G30    N/A
* REED POINT   N/A       46  31  56 W34G42     N/A
* ROSCOE HILL  N/A       40  26  57 E10        N/A   WCI  34
$$

REGIONAL REPORTS...DAKOTAS
CITY           SKY/WX    TMP DP  RH WIND       PRES   REMARKS
WILLISTON      MOCLDY    55  34  45 SE5       29.37F
DICKINSON      CLOUDY    55  27  34 S8        29.42F
BEACH          PTCLDY    54  27  35 SW12      29.44F
CROSBY         CLEAR     45  41  86 N6        29.37F
TIOGA          CLEAR     45  39  80 SE7       29.42F
WATFORD CITY   CLEAR     50  32  50 S9        29.36F
BISMARCK       CLOUDY    46  37  71 NE8       29.48F
GRAND FORKS    PTCLDY    45  28  51 SE13      29.63F
FARGO          PTCLDY    50  28  43 SE14      29.61F
BUFFALO SD     CLOUDY    57  25  29 S10       29.41F
RAPID CITY     MOCLDY    55  21  27 S7        29.51F
$$

REGIONAL REPORTS...WYOMING/IDAHO/WASHINGTON
CITY           SKY/WX    TMP DP  RH WIND       PRES   REMARKS
GILLETTE       CLOUDY    59  21  23 SW15      29.55F
SHERIDAN       CLOUDY    57  28  33 NW36G43   29.63R
CODY           PTCLDY    46  34  63 SW13      29.69R
SALMON         MOCLDY    36  27  70 CALM      29.97R
MULLAN PASS    PTCLDY    23  18  81 VRB7      29.89S WCI  15
SAND POINT     CLEAR     37  23  57 SW6       29.94R WCI  32
SPOKANE        MOCLDY    36  25  64 SW16      29.98R WCI  26
$$

REGIONAL REPORTS...ALBERTA
CITY           SKY/WX    TMP DP  RH WIND       PRES   REMARKS
CALGARY        CLOUDY    37  23  57 NW13      29.65S WCI  29
LETHBRIDGE     CLOUDY    41  27  58 W22G29    29.71R
MEDICINE HAT   CLOUDY    45  32  60 NW16G25   29.63R
EDMONTON       FAIR      36  27  70 W20G30    29.57S WCI  25
WATERTON GATE  N/A       36  19  50 SW21G30    N/A   WCI  25
CARDSTON       N/A       37  19  48 W14G23     N/A   WCI  28
MILK RIVER     N/A       37  27  67 W21G26     N/A   WCI  26
$$

REGIONAL REPORTS...SASKATCHEWAN
CITY           SKY/WX    TMP DP  RH WIND       PRES   REMARKS
SWIFT CURRENT  CLEAR     45  30  56 W20G29    29.51R
REGINA         LGT RAIN  48  43  83 NW16      29.48R
VAL MARIE      N/A       48  32  54 W16        N/A
ASSINIBOIA     N/A       46  41  83 W8         N/A
CORONACH       N/A       50  41  71 NW26G35    N/A

$$




USA.gov is the U.S. government's official web portal to all federal, state and local government web resources and services.